| time (UTC) | temp F | wind direction | speed knots | gust knots | rain 1hr in | rain 24hr in | rain mn in | humidity % | barometer mb |
| 20260831063048 | 79 | 0 | 0.0 | 2.6 | 0.00 | 0.00 | 0.00 | 59 | 1016.1 |
| 20260831061546 | 79 | 0 | 0.0 | 1.7 | 0.00 | 0.00 | 0.00 | 59 | 1016.2 |
| 20260831060059 | 79 | 141 | 0.0 | 2.6 | 0.00 | 0.00 | 0.00 | 60 | 1016.2 |
| 20260831054601 | 79 | 169 | 0.0 | 2.6 | 0.00 | 0.00 | 0.00 | 60 | 1016.4 |
| 20260831053046 | 80 | 0 | 0.0 | 1.7 | 0.00 | 0.00 | 0.00 | 60 | 1016.5 |
| 20260831051552 | 80 | 0 | 0.0 | 2.6 | 0.00 | 0.00 | 0.00 | 59 | 1016.5 |
| 20260831050051 | 81 | 0 | 0.0 | 2.6 | 0.00 | 0.00 | 0.00 | 59 | 1016.3 |
| 20260831044604 | 81 | 0 | 0.0 | 2.6 | 0.00 | 0.00 | 0.00 | 58 | 1016.3 |
| 20260831043044 | 81 | 127 | 0.0 | 2.6 | 0.00 | 0.00 | 0.00 | 58 | 1016.2 |
| 20260831041609 | 81 | 0 | 0.0 | 1.7 | 0.00 | 0.00 | 0.00 | 57 | 1016.0 |
| 20260831040049 | 81 | 200 | 0.0 | 2.6 | 0.00 | 0.00 | 0.00 | 56 | 1015.9 |
| 20260831034546 | 81 | 0 | 0.0 | 2.6 | 0.00 | 0.00 | 0.00 | 56 | 1015.7 |
| 20260831033051 | 81 | 139 | 0.0 | 0.9 | 0.00 | 0.00 | 0.00 | 55 | 1015.5 |
| 20260831031545 | 82 | 0 | 0.0 | 1.7 | 0.00 | 0.00 | 0.00 | 53 | 1015.5 |
| 20260831030058 | 82 | 0 | 0.0 | 1.7 | 0.00 | 0.00 | 0.00 | 53 | 1015.4 |
| 20260831024553 | 82 | 141 | 0.0 | 0.0 | 0.00 | 0.00 | 0.00 | 53 | 1015.1 |
| 20260831023046 | 82 | 0 | 0.0 | 0.0 | 0.00 | 0.00 | 0.00 | 53 | 1015.1 |
| 20260831021546 | 83 | 0 | 0.0 | 0.0 | 0.00 | 0.00 | 0.00 | 52 | 1014.7 |
| 20260831020055 | 83 | 0 | 0.0 | 0.0 | 0.00 | 0.00 | 0.00 | 51 | 1014.6 |
| 20260831014548 | 84 | 0 | 0.0 | 0.0 | 0.00 | 0.00 | 0.00 | 50 | 1014.5 |
| 20260831013052 | 86 | 0 | 0.0 | 0.0 | 0.00 | 0.00 | 0.00 | 48 | 1014.5 |
| 20260831011557 | 87 | 0 | 0.0 | 0.0 | 0.00 | 0.00 | 0.00 | 46 | 1014.4 |
| 20260831010049 | 89 | 0 | 0.0 | 0.0 | 0.00 | 0.00 | 0.00 | 44 | 1014.3 |
| 20260831004547 | 90 | 0 | 0.0 | 0.9 | 0.00 | 0.00 | 0.00 | 43 | 1014.4 |
| 20260831003054 | 92 | 0 | 0.0 | 0.9 | 0.00 | 0.00 | 0.00 | 41 | 1014.4 |
| 20260831001551 | 93 | 0 | 0.0 | 2.6 | 0.00 | 0.00 | 0.00 | 40 | 1014.4 |
| 20260831000049 | 94 | 195 | 0.0 | 3.5 | 0.00 | 0.00 | 0.00 | 38 | 1014.5 |
| 20260830234558 | 95 | 113 | 0.0 | 4.3 | 0.00 | 0.00 | 0.00 | 37 | 1014.5 |
| 20260830233054 | 96 | 203 | 0.0 | 4.3 | 0.00 | 0.00 | 0.00 | 36 | 1014.6 |
| 20260830231559 | 97 | 165 | 0.0 | 5.2 | 0.00 | 0.00 | 0.00 | 35 | 1014.6 |
| 20260830230049 | 98 | 224 | 0.9 | 4.3 | 0.00 | 0.00 | 0.00 | 34 | 1014.5 |
| 20260830224554 | 100 | 0 | 0.9 | 4.3 | 0.00 | 0.00 | 0.00 | 32 | 1014.6 |
| 20260830223057 | 101 | 163 | 0.0 | 4.3 | 0.00 | 0.00 | 0.00 | 32 | 1014.6 |
| 20260830221552 | 100 | 212 | 0.9 | 5.2 | 0.00 | 0.00 | 0.00 | 33 | 1014.7 |
| 20260830220050 | 100 | 0 | 0.0 | 3.5 | 0.00 | 0.00 | 0.00 | 33 | 1014.6 |
| 20260830214557 | 100 | 139 | 0.0 | 3.5 | 0.00 | 0.00 | 0.00 | 32 | 1014.7 |
| 20260830213051 | 102 | 210 | 0.9 | 5.2 | 0.00 | 0.00 | 0.00 | 30 | 1014.9 |
| 20260830211545 | 103 | 84 | 0.0 | 5.2 | 0.00 | 0.00 | 0.00 | 30 | 1014.9 |
| 20260830210047 | 103 | 154 | 0.9 | 3.5 | 0.00 | 0.00 | 0.00 | 30 | 1014.8 |
| 20260830204548 | 103 | 319 | 0.0 | 4.3 | 0.00 | 0.00 | 0.00 | 31 | 1015.1 |
| 20260830203047 | 102 | 129 | 0.0 | 7.8 | 0.00 | 0.00 | 0.00 | 31 | 1015.1 |
| 20260830201558 | 102 | 0 | 0.0 | 4.3 | 0.00 | 0.00 | 0.00 | 31 | 1015.4 |
| 20260830200043 | 101 | 243 | 1.7 | 6.1 | 0.00 | 0.00 | 0.00 | 33 | 1015.5 |
| 20260830194551 | 101 | 0 | 0.0 | 7.8 | 0.00 | 0.00 | 0.00 | 32 | 1015.7 |
| 20260830193049 | 102 | 226 | 1.7 | 7.8 | 0.00 | 0.00 | 0.00 | 33 | 1015.8 |
| 20260830191557 | 100 | 0 | 0.9 | 6.1 | 0.00 | 0.00 | 0.00 | 35 | 1015.8 |
| 20260830190051 | 100 | 95 | 0.9 | 7.0 | 0.00 | 0.00 | 0.00 | 35 | 1016.2 |
| 20260830184545 | 100 | 210 | 1.7 | 7.0 | 0.00 | 0.00 | 0.00 | 36 | 1016.3 |
| 20260830183058 | 101 | 251 | 0.9 | 5.2 | 0.00 | 0.00 | 0.00 | 36 | 1016.5 |
| 20260830181549 | 100 | 293 | 0.9 | 3.5 | 0.00 | 0.00 | 0.00 | 37 | 1016.6 |
| 20260830180058 | 98 | 304 | 0.0 | 8.7 | 0.00 | 0.00 | 0.00 | 38 | 1016.6 |
| 20260830174554 | 98 | 0 | 1.7 | 6.1 | 0.00 | 0.00 | 0.00 | 38 | 1016.7 |
| 20260830173055 | 97 | 0 | 0.9 | 7.0 | 0.00 | 0.00 | 0.00 | 39 | 1017.0 |
| 20260830171555 | 97 | 129 | 2.6 | 7.0 | 0.00 | 0.00 | 0.00 | 38 | 1017.2 |
| 20260830170047 | 97 | 158 | 0.9 | 5.2 | 0.00 | 0.00 | 0.00 | 39 | 1017.4 |
| 20260830164604 | 95 | 261 | 0.9 | 6.1 | 0.00 | 0.00 | 0.00 | 39 | 1017.4 |
| 20260830163053 | 95 | 177 | 1.7 | 7.0 | 0.00 | 0.00 | 0.00 | 40 | 1017.7 |
| 20260830161548 | 94 | 239 | 0.9 | 6.1 | 0.00 | 0.00 | 0.00 | 42 | 1017.6 |
| 20260830160048 | 93 | 212 | 0.0 | 6.1 | 0.00 | 0.00 | 0.00 | 43 | 1017.7 |
| 20260830154558 | 92 | 221 | 1.7 | 6.1 | 0.00 | 0.00 | 0.00 | 44 | 1017.6 |
| 20260830153053 | 91 | 184 | 0.0 | 6.1 | 0.00 | 0.00 | 0.00 | 45 | 1017.8 |
| 20260830151551 | 90 | 57 | 0.9 | 7.0 | 0.00 | 0.00 | 0.00 | 47 | 1017.7 |
| 20260830150045 | 88 | 127 | 0.9 | 4.3 | 0.00 | 0.00 | 0.00 | 50 | 1017.7 |
| 20260830144554 | 85 | 146 | 0.9 | 4.3 | 0.00 | 0.00 | 0.00 | 53 | 1017.9 |
| 20260830143048 | 84 | 157 | 0.9 | 5.2 | 0.00 | 0.00 | 0.00 | 55 | 1017.9 |
| 20260830141601 | 81 | 0 | 0.9 | 6.1 | 0.00 | 0.00 | 0.00 | 58 | 1018.0 |
| 20260830140053 | 79 | 193 | 1.7 | 7.8 | 0.00 | 0.00 | 0.00 | 60 | 1018.1 |
| 20260830134557 | 78 | 190 | 0.9 | 3.5 | 0.00 | 0.00 | 0.00 | 62 | 1018.0 |
| 20260830133105 | 76 | 152 | 0.0 | 3.5 | 0.00 | 0.00 | 0.00 | 64 | 1018.0 |
| 20260830131553 | 75 | 0 | 0.0 | 1.7 | 0.00 | 0.00 | 0.00 | 66 | 1017.8 |
| 20260830130049 | 74 | 191 | 0.0 | 1.7 | 0.00 | 0.00 | 0.00 | 66 | 1017.9 |
| 20260830124552 | 73 | 0 | 0.0 | 1.7 | 0.00 | 0.00 | 0.00 | 67 | 1017.8 |
| 20260830123045 | 72 | 0 | 0.0 | 0.9 | 0.00 | 0.00 | 0.00 | 68 | 1017.7 |
| 20260830121549 | 71 | 0 | 0.0 | 0.9 | 0.00 | 0.00 | 0.00 | 69 | 1017.5 |
| 20260830120046 | 70 | 0 | 0.0 | 0.0 | 0.00 | 0.00 | 0.00 | 69 | 1017.5 |
| 20260830114608 | 71 | 0 | 0.0 | 0.9 | 0.00 | 0.00 | 0.00 | 69 | 1017.4 |
| 20260830113051 | 71 | 0 | 0.0 | 0.0 | 0.00 | 0.00 | 0.00 | 68 | 1017.4 |
| 20260830111556 | 71 | 0 | 0.0 | 0.9 | 0.00 | 0.00 | 0.00 | 67 | 1017.3 |
| 20260830110058 | 72 | 0 | 0.0 | 1.7 | 0.00 | 0.00 | 0.00 | 66 | 1017.2 |
| 20260830104556 | 72 | 0 | 0.0 | 0.9 | 0.00 | 0.00 | 0.00 | 66 | 1017.2 |
| 20260830103059 | 72 | 0 | 0.0 | 0.9 | 0.00 | 0.00 | 0.00 | 65 | 1017.2 |
| 20260830101547 | 72 | 170 | 0.0 | 1.7 | 0.00 | 0.00 | 0.00 | 65 | 1017.0 |
| 20260830100057 | 72 | 0 | 0.0 | 0.9 | 0.00 | 0.00 | 0.00 | 65 | 1017.0 |
| 20260830094551 | 73 | 0 | 0.0 | 1.7 | 0.00 | 0.00 | 0.00 | 65 | 1016.9 |
| 20260830093046 | 73 | 0 | 0.0 | 1.7 | 0.00 | 0.00 | 0.00 | 64 | 1017.0 |
| 20260830091555 | 73 | 217 | 0.0 | 2.6 | 0.00 | 0.00 | 0.00 | 64 | 1017.0 |
| 20260830084558 | 74 | 0 | 0.0 | 2.6 | 0.00 | 0.00 | 0.00 | 63 | 1016.9 |
| 20260830083049 | 74 | 162 | 0.0 | 0.9 | 0.00 | 0.00 | 0.00 | 63 | 1016.8 |
| 20260830081551 | 74 | 0 | 0.0 | 1.7 | 0.00 | 0.00 | 0.00 | 63 | 1016.8 |
| 20260830080047 | 74 | 153 | 0.0 | 1.7 | 0.00 | 0.00 | 0.00 | 63 | 1016.8 |
| 20260830074557 | 75 | 134 | 0.0 | 0.9 | 0.00 | 0.00 | 0.00 | 63 | 1016.6 |
| 20260830073107 | 75 | 204 | 0.0 | 0.9 | 0.00 | 0.00 | 0.00 | 62 | 1016.7 |
| 20260830071550 | 75 | 0 | 0.0 | 1.7 | 0.00 | 0.00 | 0.00 | 62 | 1016.8 |
| 20260830070046 | 75 | 155 | 0.0 | 1.7 | 0.00 | 0.00 | 0.00 | 62 | 1016.8 |
| 20260830064545 | 75 | 219 | 0.0 | 1.7 | 0.00 | 0.00 | 0.00 | 62 | 1017.0 |